Location: Ecklingerode
(51.5036°N, 10.3122°E)
Time: 07:48:21
(UTC+00:00)

Cosmos 1992 Rocket - Pass Details

Date: 29 October 2020
Orbit: 759 x 766 km, 74.0° (Epoch: 01 December)

Event Time Altitude Azimuth Distance (km) Brightness Sun altitude
Rises 17:33:04 0° 187° (S) 3,207 7.3 -15.5°
Reaches altitude 10° 17:35:28 10° 182° (S) 2,285 6.5 -15.9°
Maximum altitude 17:40:28 52° 108° (ESE) 944 4.1 -16.6°
Enters shadow 17:45:22 11° 33° (NNE) 2,241 6.1 -17.4°
